OPS 0054 (DMSP 5A F1)

Satellite information

Favourite Embed

Satellite Type and Status

PAYLOADIN ORBIT

Key statistics

Satellite OPS 0054 (DMSP 5A F1) at a glance.

Uptime

20354

Days in orbit

Revolutions

≈ 14.3

Per day

Orbit

SSO

Sun Synchronous Orbit

Inclination

99.0

Latest

Satellite identification and parameters

Extended collection of information and parameters for OPS 0054 (DMSP 5A F1).

Object identification

Identified? True

Debris? False

Object name: OPS 0054 (DMSP 5A F1)

International designator: 1970-012A

Object number (NORAD): 4331

Object ID (CCSDS): 4331

Country: UNITED STATES OF AMERICA (US)

Current information (Y/N): Y

RCS size: MEDIUM

Orbital parameters

Period: 100.386 minutes

Inclination: 98.992 deg

SMA: 7155.001 km

Apoapsis: 817.161 km

Periapsis: 736.572 km

RAAN: 109.5659 deg

Eccentricy: 0.00563164

Argument of periapsis: 275.7982 deg

Mean anomaly: 83.6783 deg

Mean motion: 14.34459202 rev/day

Mean motion (dot): 0.00000413 rev/day2

B* drag term: 0.00016082001 1/REarth

Two-line elements (TLE)

Creation date: Nov. 1, 2025, 7:40 p.m.

Reference frame: TEME

Reference center: EARTH

Epoch: Nov. 1, 2025, 9:50 a.m. UTC

TLE line 0: 0 OPS 0054 (DMSP 5A F1)

TLE line 1: 1 04331U 70012A 25305.41026934 .00000413 00000-0 16082-3 0 9993

TLE line 2: 2 04331 98.9920 109.5659 0056316 275.7982 83.6783 14.34459202904525

Live tracking on map

Real-time ground track for satellite OPS 0054 (DMSP 5A F1).

In-orbit conjunctions

There are no conjunctions computed for OPS 0054 (DMSP 5A F1), at the moment. Check back to stay up to date, as we update our databases every day.

Go to all conjunctions

Associated space launch

Military meteorological satellite

OPS 0054 (DMSP 5A F1) was lifted into orbit during the mission ‘Thor Burner 2 | DSAP-5A F1’, on board a Thor Burner 2 space rocket.

The launch took place on Feb. 11, 1970, 8:40 a.m. from Space Launch Complex 10W.

For more information about the launch, click the button.

Launch to space Thor Burner 2 | DSAP-5A F1
Thor Burner 2 | DSAP-5A F1

Agency: N/A

Status: Launch Successful

Launch date: Feb. 11, 1970, 8:40 a.m. UTC

Rocket: Thor Burner 2

Launch pad: Space Launch Complex 10W

Location: Vandenberg SFB, CA, USA

...

Latest news about this satellite

There are no fresh news available about this satellite. Check back as we update our databases every day.


Newsletter sign-up

Weekly statistics, charts and insights to help you stay on top of the space industry.